(329778) = 2004 MA4

Discovered at Wrightwood on 2004-06-22 by J. W. Young.

Orbit

Orbit type: Main Belt

Note: WebGL enabled browser required.

epoch2024-03-31.0
epoch JD2460400.5
perihelion date2026-01-28.78620
perihelion JD2461069.28620
argument of perihelion (°)14.46099
ascending node (°)296.31265
inclination (°)7.56630
eccentricity0.0933977
perihelion distance (AU)2.3938856
Tisserand w.r.t. Jupiter3.4
ΔV w.r.t. Earth (km/sec)10.0
semimajor axis (AU)2.6405024
mean anomaly (°)206.37521
mean daily motion (°/day)0.22970690
aphelion distance (AU)2.887
period (years)4.29
P-vector [x]0.65112338
P-vector [y]-0.70876883
P-vector [z]-0.27144998
Q-vector [x]0.74973806
Q-vector [y]0.54503616
Q-vector [z]0.37527113
absolute magnitude16.61
phase slope0.15
uncertainty0
referenceMPEC 2024-C181
observations used245
oppositions12
arc length (days)7176
first opposition used2004
last opposition used2024
residual rms (arc-secs)0.66
perturbers coarse indicatorM-v
perturbers precise indicator003Ek
first observation date used2004-06-22.0
last observation date used2024-02-14.0
computer nameMPCLINUX
JD of orbit computation2456612.512677
perihelion JD uncertainty (days)2.6245E-04
argument of perihelion uncertainty (°)1.0452E-04
ascending node uncertainty (°)8.5079E-05
inclination uncertainty (°)7.4785E-06
eccentricity uncertainty 8.1915E-08
perihelion distance uncertainty (AU)2.0350E-07
Minimum Orbit Intersection Distances (in AU)
for orbit epoch: 2460400.5, reference: E2024-CI1
Mercury1.95798
Venus1.66869
Earth1.37982
Mars0.98605
Jupiter2.32231
Saturn6.20131
Uranus15.6023
Neptune27.1738

Observations

251 total observations over interval: 2003 03 31.33002 – 2024 02 14.380781
These data are available for download (format description).

Date (UT) J2000 RA J2000 Dec Magn Location Ref
2003 03 31.33002 11 58 42.53 -11 59 27.3 20.4 V 691 – Steward Observatory, Kitt Peak-Spacewatch MPS 383981
2003 03 31.37073 11 58 40.35 -11 59 14.4 20.2 V 691 – Steward Observatory, Kitt Peak-Spacewatch MPS 383981
2003 03 31.40117 11 58 38.71 -11 59 05.5 20.3 V 691 – Steward Observatory, Kitt Peak-Spacewatch MPS 383981
2004 06 22.41285 21 01 18.26 -16 57 37.8 20.0 R 673 – Table Mountain Observatory, Wrightwood MPS 109612
2004 06 22.43588 21 01 17.85 -16 57 34.9   673 – Table Mountain Observatory, Wrightwood MPS 109612
2004 06 22.45660 21 01 17.44 -16 57 31.9   673 – Table Mountain Observatory, Wrightwood MPS 109612
2004 06 23.40880 21 00 59.90 -16 55 21.9 20.0 R 673 – Table Mountain Observatory, Wrightwood MPS 109612
2004 06 23.41227 21 00 59.83 -16 55 21.5   673 – Table Mountain Observatory, Wrightwood MPS 109612
2004 06 23.41574 21 00 59.76 -16 55 20.9   673 – Table Mountain Observatory, Wrightwood MPS 109612
2004 06 29.44514 20 58 31.95 -16 43 24.1 20.0 R 673 – Table Mountain Observatory, Wrightwood MPS 109990
2004 06 29.44884 20 58 31.84 -16 43 23.6   673 – Table Mountain Observatory, Wrightwood MPS 109990
2004 06 29.45220 20 58 31.73 -16 43 23.2   673 – Table Mountain Observatory, Wrightwood MPS 109990
2004 08 16.23611 20 18 20.76 -16 12 29.6 20.0 R 673 – Table Mountain Observatory, Wrightwood MPS 111870
2004 08 16.24086 20 18 20.55 -16 12 29.5   673 – Table Mountain Observatory, Wrightwood MPS 111870
2004 08 16.24664 20 18 20.27 -16 12 29.4   673 – Table Mountain Observatory, Wrightwood MPS 111870
2007 03 15.22758 10 15 52.74 +02 04 40.2 20.3 V 703 – Catalina Sky Survey MPS 385783
2007 03 15.23690 10 15 52.48 +02 04 41.6 20.9 V 703 – Catalina Sky Survey MPS 385783
2007 03 15.24621 10 15 51.98 +02 04 46.3 20.9 V 703 – Catalina Sky Survey MPS 385783
2007 03 15.25557 10 15 51.58 +02 04 48.2 20.5 V 703 – Catalina Sky Survey MPS 385783
2009 10 27.33662 02 18 56.41 +26 29 32.2 19.9 V G96 – Mt. Lemmon Survey MPS 383981
2009 10 27.34369 02 18 55.98 +26 29 30.1 19.9 V G96 – Mt. Lemmon Survey MPS 383981
2009 10 27.35069 02 18 55.54 +26 29 28.1 19.9 V G96 – Mt. Lemmon Survey MPS 383981
2009 10 27.35789 02 18 55.11 +26 29 26.1 19.8 V G96 – Mt. Lemmon Survey MPS 383981
2011 01 28.29171 09 04 28.92 +13 27 09.7 20.3 V G96 – Mt. Lemmon Survey MPS 383981
2011 01 28.29919 09 04 28.48 +13 27 10.3 20.9 V G96 – Mt. Lemmon Survey MPS 383981
2011 01 28.30674 09 04 27.98 +13 27 10.9 20.8 V G96 – Mt. Lemmon Survey MPS 383981
2011 01 28.31433 09 04 27.55 +13 27 11.9 20.6 V G96 – Mt. Lemmon Survey MPS 383981
2011 01 30.34192 09 02 29.480 +13 30 48.63 21.2 w F51 – Pan-STARRS 1, Haleakala MPS 383981
2011 01 30.35649 09 02 28.607 +13 30 50.32 21.0 w F51 – Pan-STARRS 1, Haleakala MPS 383981
2011 01 30.37213 09 02 27.669 +13 30 52.03 21.1 w F51 – Pan-STARRS 1, Haleakala MPS 383981
2011 02 05.36093 08 56 35.19 +13 42 02.8 20.8 V G96 – Mt. Lemmon Survey MPS 383981
2011 02 05.36787 08 56 34.76 +13 42 03.7 20.8 V G96 – Mt. Lemmon Survey MPS 383981
2011 02 05.37485 08 56 34.33 +13 42 04.1 20.6 V G96 – Mt. Lemmon Survey MPS 383981
2011 02 05.38181 08 56 33.90 +13 42 05.0 21.1 V G96 – Mt. Lemmon Survey MPS 383981
2012 01 31.63007 14 54 27.375 -24 44 47.15 21.7 w F51 – Pan-STARRS 1, Haleakala MPS 410140
2012 01 31.63540 14 54 27.705 -24 44 49.17 21.6 w F51 – Pan-STARRS 1, Haleakala MPS 410140
2012 01 31.64073 14 54 28.056 -24 44 51.44 21.6 w F51 – Pan-STARRS 1, Haleakala MPS 410140
2012 01 31.64604 14 54 28.384 -24 44 53.73 21.7 w F51 – Pan-STARRS 1, Haleakala MPS 410140
2012 05 15.36666 14 52 07.410 -28 17 19.36 20.1 g F51 – Pan-STARRS 1, Haleakala MPS 423931
2012 05 15.37731 14 52 06.775 -28 17 15.98 20.2 g F51 – Pan-STARRS 1, Haleakala MPS 423931
2012 05 15.38806 14 52 06.139 -28 17 12.35 19.7 r F51 – Pan-STARRS 1, Haleakala MPS 423931
2012 05 15.39773 14 52 05.570 -28 17 09.17 19.7 r F51 – Pan-STARRS 1, Haleakala MPS 423931
2012 06 08.33721 14 34 23.474 -25 48 19.64 20.1 i F51 – Pan-STARRS 1, Haleakala MPS 427277
2012 06 08.34786 14 34 23.151 -25 48 15.68 20.0 i F51 – Pan-STARRS 1, Haleakala MPS 427277
2013 08 10.35115 00 27 08.44 +12 40 12.5 20.8 r I41 – Palomar Mountain--ZTF MPS 474332
2013 08 10.40749 00 27 08.01 +12 40 28.0 20.4 r I41 – Palomar Mountain--ZTF MPS 474332
2013 08 10.44372 00 27 07.74 +12 40 38.0 20.5 r I41 – Palomar Mountain--ZTF MPS 474332
2013 08 11.34525 00 27 02.06 +12 44 39.0 20.4 r I41 – Palomar Mountain--ZTF MPS 474332
2013 08 11.40404 00 27 01.55 +12 44 54.3 20.3 r I41 – Palomar Mountain--ZTF MPS 474332
2013 08 11.44069 00 27 01.22 +12 45 04.2 20.2 r I41 – Palomar Mountain--ZTF MPS 474332
2013 08 12.33981 00 26 54.12 +12 48 54.6 20.3 r I41 – Palomar Mountain--ZTF MPS 474332
2013 08 12.39994 00 26 53.48 +12 49 10.1 20.4 r I41 – Palomar Mountain--ZTF MPS 474332
2013 08 12.43750 00 26 53.07 +12 49 19.7 20.5 r I41 – Palomar Mountain--ZTF MPS 474332
2013 08 13.33939 00 26 44.51 +12 53 01.6 20.3 r I41 – Palomar Mountain--ZTF MPS 474332
2013 08 13.39067 00 26 43.89 +12 53 14.1 20.2 r I41 – Palomar Mountain--ZTF MPS 474332
2013 08 13.42695 00 26 43.44 +12 53 22.9 20.2 r I41 – Palomar Mountain--ZTF MPS 474332
2013 08 14.38407 00 26 32.69 +12 57 08.1 20.5 r I41 – Palomar Mountain--ZTF MPS 474332
2013 08 14.42069 00 26 32.18 +12 57 16.7 20.5 r I41 – Palomar Mountain--ZTF MPS 474332
2013 08 15.32287 00 26 20.73 +13 00 39.2 20.2 r I41 – Palomar Mountain--ZTF MPS 474332
2013 08 15.41463 00 26 19.33 +13 00 59.6 20.3 r I41 – Palomar Mountain--ZTF MPS 474332
2013 08 16.35594 00 26 05.80 +13 04 20.5 20.1 r I41 – Palomar Mountain--ZTF MPS 474332
2013 08 16.40972 00 26 04.86 +13 04 32.1 20.2 r I41 – Palomar Mountain--ZTF MPS 474332
2013 09 03.55382 00 17 17.508 +13 34 22.45 20.2 g F51 – Pan-STARRS 1, Haleakala MPS 476101
2013 09 03.56549 00 17 16.992 +13 34 22.18 20.3 g F51 – Pan-STARRS 1, Haleakala MPS 476101
2013 09 15.35637 00 07 58.09 +13 16 25.6 19.8 V 703 – Catalina Sky Survey MPS 477633
2013 09 15.36142 00 07 57.74 +13 16 23.4 19.7 V 703 – Catalina Sky Survey MPS 477633
2013 09 15.36646 00 07 57.53 +13 16 21.9 20.2 V 703 – Catalina Sky Survey MPS 477633
2013 09 15.37151 00 07 57.23 +13 16 22.0 19.4 V 703 – Catalina Sky Survey MPS 477633
2013 09 16.38525 00 07 04.659 +13 13 30.27 19.7 i F51 – Pan-STARRS 1, Haleakala MPS 478674
2013 09 16.39731 00 07 03.994 +13 13 28.29 19.5 i F51 – Pan-STARRS 1, Haleakala MPS 478674
2013 09 29.49810 23 55 25.386 +12 21 10.74 19.6 r F51 – Pan-STARRS 1, Haleakala MPS 479955
2013 09 29.50833 23 55 24.833 +12 21 07.96 19.5 r F51 – Pan-STARRS 1, Haleakala MPS 479955
2013 09 30.50242 23 54 33.54 +12 16 10.9 19.9 R D29 – Purple Mountain Observatory, XuYi Station MPS 487070
2013 09 30.51833 23 54 32.75 +12 16 05.9 20.8 R D29 – Purple Mountain Observatory, XuYi Station MPS 487070
2013 09 30.53423 23 54 31.85 +12 16 00.8 20.7 R D29 – Purple Mountain Observatory, XuYi Station MPS 487070
2013 09 30.54659 23 54 31.16 +12 15 58.5 19.8 R D29 – Purple Mountain Observatory, XuYi Station MPS 487070
2013 09 30.57841 23 54 29.41 +12 15 48.4 19.7 R D29 – Purple Mountain Observatory, XuYi Station MPS 487070
2013 10 01.28869 23 53 52.61 +12 12 14.4 19.4 V 703 – Catalina Sky Survey MPS 479955
2013 10 01.29321 23 53 52.34 +12 12 12.2 20.1 V 703 – Catalina Sky Survey MPS 479955
2013 10 01.29776 23 53 52.18 +12 12 09.8 19.4 V 703 – Catalina Sky Survey MPS 479955
2013 10 01.30226 23 53 51.87 +12 12 09.6 19.5 V 703 – Catalina Sky Survey MPS 479955
2013 10 06.28561 23 49 44.17 +11 45 51.2 19.3 V G96 – Mt. Lemmon Survey MPS 482232
2013 10 06.29147 23 49 43.87 +11 45 49.2 19.4 V G96 – Mt. Lemmon Survey MPS 482232
2013 10 06.29740 23 49 43.56 +11 45 47.3 19.4 V G96 – Mt. Lemmon Survey MPS 482232
2013 10 06.30332 23 49 43.30 +11 45 45.3 19.3 V G96 – Mt. Lemmon Survey MPS 482232
2013 10 11.21618 23 46 00.88 +11 18 31.3 19.2 V 703 – Catalina Sky Survey MPS 482232
2013 10 11.22118 23 46 00.78 +11 18 31.0 19.6 V 703 – Catalina Sky Survey MPS 482232
2013 10 11.22620 23 46 00.47 +11 18 29.3 19.2 V 703 – Catalina Sky Survey MPS 482232
2013 10 11.23125 23 46 00.24 +11 18 27.8 19.6 V 703 – Catalina Sky Survey MPS 482232
2013 10 12.19131 23 45 19.92 +11 13 04.9 20.2 G G45 – Space Surveillance Telescope, Atom Site MPS 1609596
